owner,sensor,date,latitude,longitude,vertical_datum,wind_speed,wind_to_direction,wind_speed_of_gust,qcFlag 
ADCP,ioos:station:wmo:42390:1,2014-10-01T00:30:00Z,26.1290,-94.8980,1.0,3.7,179.0,99.0,'11111222,11111222,11144222' 
ADCP,ioos:station:wmo:42390:1,2014-10-01T01:30:00Z,26.1290,-94.8980,1.0,3.1,187.0,99.0,'11111222,11111222,11144222' 
ADCP,ioos:station:wmo:42390:1,2014-10-01T02:30:00Z,26.1290,-94.8980,1.0,3.5,167.0,99.0,'11111222,11111222,11144222' 
ADCP,ioos:station:wmo:42390:1,2014-10-01T03:30:00Z,26.1290,-94.8980,1.0,4.6,163.0,99.0,'11111222,11111222,11144222' 
ADCP,ioos:station:wmo:42390:1,2014-10-01T04:30:00Z,26.1290,-94.8980,1.0,5.7,159.0,99.0,'11111222,11111222,11144222' 
ADCP,ioos:station:wmo:42390:1,2014-10-01T05:30:00Z,26.1290,-94.8980,1.0,6.5,160.0,99.0,'11111222,11111222,11144222' 
ADCP,ioos:station:wmo:42390:1,2014-10-01T06:30:00Z,26.1290,-94.8980,1.0,7.3,165.0,99.0,'11111222,11111222,11144222' 
ADCP,ioos:station:wmo:42390:1,2014-10-01T07:30:00Z,26.1290,-94.8980,1.0,7.2,164.0,99.0,'11111222,11111222,11144222' 
ADCP,ioos:station:wmo:42390:1,2014-10-01T08:30:00Z,26.1290,-94.8980,1.0,7.3,172.0,99.0,'11111222,11111222,11144222' 
ADCP,ioos:station:wmo:42390:1,2014-10-01T09:30:00Z,26.1290,-94.8980,1.0,7.3,180.0,99.0,'11111222,11111222,11144222' 
ADCP,ioos:station:wmo:42390:1,2014-10-01T10:30:00Z,26.1290,-94.8980,1.0,5.8,174.0,99.0,'11111222,11111222,11144222' 
ADCP,ioos:station:wmo:42390:1,2014-10-01T11:30:00Z,26.1290,-94.8980,1.0,7.2,189.0,99.0,'11111222,11111222,11144222' 
ADCP,ioos:station:wmo:42390:1,2014-10-01T12:30:00Z,26.1290,-94.8980,1.0,8.1,207.0,99.0,'11111222,11111222,11144222' 
ADCP,ioos:station:wmo:42390:1,2014-10-01T13:30:00Z,26.1290,-94.8980,1.0,5.8,198.0,99.0,'11111222,11111222,11144222' 
ADCP,ioos:station:wmo:42390:1,2014-10-01T14:30:00Z,26.1290,-94.8980,1.0,8.0,180.0,99.0,'11111222,11111222,11144222' 
ADCP,ioos:station:wmo:42390:1,2014-10-01T15:30:00Z,26.1290,-94.8980,1.0,7.3,182.0,99.0,'11111222,11111222,11144222' 
ADCP,ioos:station:wmo:42390:1,2014-10-01T16:30:00Z,26.1290,-94.8980,1.0,7.1,183.0,99.0,'11111222,11111222,11144222' 
ADCP,ioos:station:wmo:42390:1,2014-10-01T17:30:00Z,26.1290,-94.8980,1.0,6.0,184.0,99.0,'11111222,11111222,11144222' 
ADCP,ioos:station:wmo:42390:1,2014-10-01T18:30:00Z,26.1290,-94.8980,1.0,7.0,166.0,99.0,'11111222,11111222,11144222' 
ADCP,ioos:station:wmo:42390:1,2014-10-01T19:30:00Z,26.1290,-94.8980,1.0,7.5,172.0,99.0,'11111222,11111222,11144222' 
ADCP,ioos:station:wmo:42390:1,2014-10-01T20:30:00Z,26.1290,-94.8980,1.0,7.6,170.0,99.0,'11111222,11111222,11144222' 
ADCP,ioos:station:wmo:42390:1,2014-10-01T21:30:00Z,26.1290,-94.8980,1.0,7.7,170.0,99.0,'11111222,11111222,11144222' 
ADCP,ioos:station:wmo:42390:1,2014-10-01T22:30:00Z,26.1290,-94.8980,1.0,6.8,168.0,99.0,'11111222,11111222,11144222' 
ADCP,ioos:station:wmo:42390:1,2014-10-01T23:30:00Z,26.1290,-94.8980,1.0,6.5,159.0,99.0,'11111222,11111222,11144222' 
ADCP,ioos:station:wmo:42390:1,2014-10-02T00:30:00Z,26.1290,-94.8980,1.0,6.7,153.0,99.0,'11111222,11111222,11144222' 
ADCP,ioos:station:wmo:42390:1,2014-10-02T01:30:00Z,26.1290,-94.8980,1.0,8.2,153.0,99.0,'11111222,11111222,11144222' 
ADCP,ioos:station:wmo:42390:1,2014-10-02T02:30:00Z,26.1290,-94.8980,1.0,8.2,156.0,99.0,'11111222,11111222,11144222' 
ADCP,ioos:station:wmo:42390:1,2014-10-02T03:30:00Z,26.1290,-94.8980,1.0,8.0,151.0,99.0,'11111222,11111222,11144222' 
ADCP,ioos:station:wmo:42390:1,2014-10-02T04:30:00Z,26.1290,-94.8980,1.0,8.4,150.0,99.0,'11111222,11111222,11144222' 
ADCP,ioos:station:wmo:42390:1,2014-10-02T05:30:00Z,26.1290,-94.8980,1.0,8.3,150.0,99.0,'11111222,11111222,11144222' 
ADCP,ioos:station:wmo:42390:1,2014-10-02T06:30:00Z,26.1290,-94.8980,1.0,8.4,150.0,99.0,'11111222,11111222,11144222' 
ADCP,ioos:station:wmo:42390:1,2014-10-02T07:30:00Z,26.1290,-94.8980,1.0,8.2,152.0,99.0,'11111222,11111222,11144222' 
ADCP,ioos:station:wmo:42390:1,2014-10-02T08:30:00Z,26.1290,-94.8980,1.0,7.8,158.0,99.0,'11111222,11111222,11144222' 
ADCP,ioos:station:wmo:42390:1,2014-10-02T09:30:00Z,26.1290,-94.8980,1.0,8.3,160.0,99.0,'11111222,11111222,11144222' 
ADCP,ioos:station:wmo:42390:1,2014-10-02T10:30:00Z,26.1290,-94.8980,1.0,8.5,163.0,99.0,'11111222,11111222,11144222' 
ADCP,ioos:station:wmo:42390:1,2014-10-02T11:30:00Z,26.1290,-94.8980,1.0,8.0,160.0,99.0,'11111222,11111222,11144222' 
ADCP,ioos:station:wmo:42390:1,2014-10-02T12:30:00Z,26.1290,-94.8980,1.0,7.8,158.0,99.0,'11111222,11111222,11144222' 
ADCP,ioos:station:wmo:42390:1,2014-10-02T13:30:00Z,26.1290,-94.8980,1.0,8.0,152.0,99.0,'11111222,11111222,11144222' 
ADCP,ioos:station:wmo:42390:1,2014-10-02T14:30:00Z,26.1290,-94.8980,1.0,8.5,151.0,99.0,'11111222,11111222,11144222' 
ADCP,ioos:station:wmo:42390:1,2014-10-02T15:30:00Z,26.1290,-94.8980,1.0,9.2,151.0,99.0,'11111222,11111222,11144222' 
ADCP,ioos:station:wmo:42390:1,2014-10-02T16:30:00Z,26.1290,-94.8980,1.0,8.9,156.0,99.0,'11111222,11111222,11144222' 
ADCP,ioos:station:wmo:42390:1,2014-10-02T17:30:00Z,26.1290,-94.8980,1.0,8.5,160.0,99.0,'11111222,11111222,11144222' 
ADCP,ioos:station:wmo:42390:1,2014-10-02T18:30:00Z,26.1290,-94.8980,1.0,7.9,160.0,99.0,'11111222,11111222,11144222' 
ADCP,ioos:station:wmo:42390:1,2014-10-02T19:30:00Z,26.1290,-94.8980,1.0,6.5,159.0,99.0,'11111222,11111222,11144222' 
ADCP,ioos:station:wmo:42390:1,2014-10-02T20:30:00Z,26.1290,-94.8980,1.0,5.3,150.0,99.0,'11111222,11111222,11144222' 
ADCP,ioos:station:wmo:42390:1,2014-10-02T21:30:00Z,26.1290,-94.8980,1.0,5.2,141.0,99.0,'11111222,11111222,11144222' 
ADCP,ioos:station:wmo:42390:1,2014-10-02T22:30:00Z,26.1290,-94.8980,1.0,5.7,142.0,99.0,'11111222,11111222,11144222' 
ADCP,ioos:station:wmo:42390:1,2014-10-02T23:30:00Z,26.1290,-94.8980,1.0,7.1,148.0,99.0,'11111222,11111222,11144222' 
ADCP,ioos:station:wmo:42390:1,2014-10-03T00:30:00Z,26.1290,-94.8980,1.0,7.2,153.0,99.0,'11111222,11111222,11144222' 
ADCP,ioos:station:wmo:42390:1,2014-10-03T01:30:00Z,26.1290,-94.8980,1.0,7.5,150.0,99.0,'11111222,11111222,11144222' 
ADCP,ioos:station:wmo:42390:1,2014-10-03T02:30:00Z,26.1290,-94.8980,1.0,7.6,147.0,99.0,'11111222,11111222,11144222' 
ADCP,ioos:station:wmo:42390:1,2014-10-03T03:30:00Z,26.1290,-94.8980,1.0,8.5,151.0,99.0,'11111222,11111222,11144222' 
ADCP,ioos:station:wmo:42390:1,2014-10-03T04:30:00Z,26.1290,-94.8980,1.0,9.1,160.0,99.0,'11111222,11111222,11144222' 
ADCP,ioos:station:wmo:42390:1,2014-10-03T05:30:00Z,26.1290,-94.8980,1.0,8.7,160.0,99.0,'11111222,11111222,11144222' 
ADCP,ioos:station:wmo:42390:1,2014-10-03T06:30:00Z,26.1290,-94.8980,1.0,8.9,167.0,99.0,'11111222,11111222,11144222' 
ADCP,ioos:station:wmo:42390:1,2014-10-03T07:30:00Z,26.1290,-94.8980,1.0,8.9,176.0,99.0,'11111222,11111222,11144222' 
ADCP,ioos:station:wmo:42390:1,2014-10-03T08:30:00Z,26.1290,-94.8980,1.0,9.3,178.0,99.0,'11111222,11111222,11144222' 
ADCP,ioos:station:wmo:42390:1,2014-10-03T09:30:00Z,26.1290,-94.8980,1.0,7.3,184.0,99.0,'11111222,11111222,11144222' 
ADCP,ioos:station:wmo:42390:1,2014-10-03T10:30:00Z,26.1290,-94.8980,1.0,6.2,194.0,99.0,'11111222,11111222,11144222' 
ADCP,ioos:station:wmo:42390:1,2014-10-03T11:30:00Z,26.1290,-94.8980,1.0,4.9,200.0,99.0,'11111222,11111222,11144222' 
ADCP,ioos:station:wmo:42390:1,2014-10-03T12:30:00Z,26.1290,-94.8980,1.0,5.3,200.0,99.0,'11111222,11111222,11144222' 
ADCP,ioos:station:wmo:42390:1,2014-10-03T13:30:00Z,26.1290,-94.8980,1.0,4.3,213.0,99.0,'11111222,11111222,11144222' 
ADCP,ioos:station:wmo:42390:1,2014-10-03T14:30:00Z,26.1290,-94.8980,1.0,2.5,220.0,99.0,'11111222,11111222,11144222' 
ADCP,ioos:station:wmo:42390:1,2014-10-03T15:30:00Z,26.1290,-94.8980,1.0,3.9,280.0,99.0,'11111222,11111222,11144222' 
ADCP,ioos:station:wmo:42390:1,2014-10-03T16:30:00Z,26.1290,-94.8980,1.0,2.8,345.0,99.0,'11111222,11111222,11144222' 
ADCP,ioos:station:wmo:42390:1,2014-10-03T17:30:00Z,26.1290,-94.8980,1.0,3.4,41.0,99.0,'11111222,11111222,11144222' 
ADCP,ioos:station:wmo:42390:1,2014-10-03T18:30:00Z,26.1290,-94.8980,1.0,3.7,80.0,99.0,'11111222,11111222,11144222' 
ADCP,ioos:station:wmo:42390:1,2014-10-03T19:30:00Z,26.1290,-94.8980,1.0,2.2,81.0,99.0,'11111222,11111222,11144222' 
ADCP,ioos:station:wmo:42390:1,2014-10-03T20:30:00Z,26.1290,-94.8980,1.0,2.8,55.0,99.0,'11111222,11111222,11144222' 
ADCP,ioos:station:wmo:42390:1,2014-10-03T21:30:00Z,26.1290,-94.8980,1.0,2.3,55.0,99.0,'11111222,11111222,11144222' 
ADCP,ioos:station:wmo:42390:1,2014-10-03T22:30:00Z,26.1290,-94.8980,1.0,1.9,38.0,99.0,'11111222,11111222,11144222' 
ADCP,ioos:station:wmo:42390:1,2014-10-03T23:30:00Z,26.1290,-94.8980,1.0,2.9,50.0,99.0,'11111222,11111222,11144222' 
ADCP,ioos:station:wmo:42390:1,2014-10-04T00:30:00Z,26.1290,-94.8980,1.0,4.5,50.0,99.0,'11111222,11111222,11144222' 
ADCP,ioos:station:wmo:42390:1,2014-10-04T01:30:00Z,26.1290,-94.8980,1.0,6.5,41.0,99.0,'11111222,11111222,11144222' 
ADCP,ioos:station:wmo:42390:1,2014-10-04T02:30:00Z,26.1290,-94.8980,1.0,7.1,33.0,99.0,'11111222,11111222,11144222' 
ADCP,ioos:station:wmo:42390:1,2014-10-04T03:30:00Z,26.1290,-94.8980,1.0,7.5,39.0,99.0,'11111222,11111222,11144222' 
ADCP,ioos:station:wmo:42390:1,2014-10-04T04:30:00Z,26.1290,-94.8980,1.0,7.6,33.0,99.0,'11111222,11111222,11144222' 
ADCP,ioos:station:wmo:42390:1,2014-10-04T05:30:00Z,26.1290,-94.8980,1.0,9.3,31.0,99.0,'11111222,11111222,11144222' 
ADCP,ioos:station:wmo:42390:1,2014-10-04T06:30:00Z,26.1290,-94.8980,1.0,9.1,36.0,99.0,'11111222,11111222,11144222' 
ADCP,ioos:station:wmo:42390:1,2014-10-04T07:30:00Z,26.1290,-94.8980,1.0,9.2,36.0,99.0,'11111222,11111222,11144222' 
ADCP,ioos:station:wmo:42390:1,2014-10-04T08:30:00Z,26.1290,-94.8980,1.0,9.3,33.0,99.0,'11111222,11111222,11144222' 
ADCP,ioos:station:wmo:42390:1,2014-10-04T09:30:00Z,26.1290,-94.8980,1.0,10.3,34.0,99.0,'11111222,11111222,11144222' 
ADCP,ioos:station:wmo:42390:1,2014-10-04T10:30:00Z,26.1290,-94.8980,1.0,11.1,32.0,99.0,'11111222,11111222,11144222' 
ADCP,ioos:station:wmo:42390:1,2014-10-04T11:30:00Z,26.1290,-94.8980,1.0,10.5,38.0,99.0,'11111222,11111222,11144222' 
ADCP,ioos:station:wmo:42390:1,2014-10-04T12:30:00Z,26.1290,-94.8980,1.0,10.5,39.0,99.0,'11111222,11111222,11144222' 
ADCP,ioos:station:wmo:42390:1,2014-10-04T13:30:00Z,26.1290,-94.8980,1.0,9.9,35.0,99.0,'11111222,11111222,11144222' 
ADCP,ioos:station:wmo:42390:1,2014-10-04T14:30:00Z,26.1290,-94.8980,1.0,10.7,72.0,99.0,'11111222,11111222,11144222' 
ADCP,ioos:station:wmo:42390:1,2014-10-04T15:30:00Z,26.1290,-94.8980,1.0,7.7,58.0,99.0,'11111222,11111222,11144222' 
ADCP,ioos:station:wmo:42390:1,2014-10-04T16:30:00Z,26.1290,-94.8980,1.0,8.0,61.0,99.0,'11111222,11111222,11144222' 
ADCP,ioos:station:wmo:42390:1,2014-10-04T17:30:00Z,26.1290,-94.8980,1.0,8.6,53.0,99.0,'11111222,11111222,11144222' 
ADCP,ioos:station:wmo:42390:1,2014-10-04T18:30:00Z,26.1290,-94.8980,1.0,8.5,56.0,99.0,'11111222,11111222,11144222' 
ADCP,ioos:station:wmo:42390:1,2014-10-04T20:30:00Z,26.1290,-94.8980,1.0,8.6,55.0,99.0,'11111222,11111222,11144222' 
ADCP,ioos:station:wmo:42390:1,2014-10-04T21:30:00Z,26.1290,-94.8980,1.0,8.1,56.0,99.0,'11111222,11111222,11144222' 
ADCP,ioos:station:wmo:42390:1,2014-10-04T23:30:00Z,26.1290,-94.8980,1.0,6.8,60.0,99.0,'11111222,11111222,11144222' 
ADCP,ioos:station:wmo:42390:1,2014-10-05T00:30:00Z,26.1290,-94.8980,1.0,7.3,58.0,99.0,'11111222,11111222,11144222' 
ADCP,ioos:station:wmo:42390:1,2014-10-05T01:30:00Z,26.1290,-94.8980,1.0,7.3,64.0,99.0,'11111222,11111222,11144222' 
ADCP,ioos:station:wmo:42390:1,2014-10-05T02:30:00Z,26.1290,-94.8980,1.0,8.1,63.0,99.0,'11111222,11111222,11144222' 
ADCP,ioos:station:wmo:42390:1,2014-10-05T03:30:00Z,26.1290,-94.8980,1.0,9.2,69.0,99.0,'11111222,11111222,11144222' 
ADCP,ioos:station:wmo:42390:1,2014-10-05T04:30:00Z,26.1290,-94.8980,1.0,10.1,73.0,99.0,'11111222,11111222,11144222' 
ADCP,ioos:station:wmo:42390:1,2014-10-05T05:30:00Z,26.1290,-94.8980,1.0,9.7,84.0,99.0,'11111222,11111222,11144222' 
ADCP,ioos:station:wmo:42390:1,2014-10-05T06:30:00Z,26.1290,-94.8980,1.0,8.6,97.0,99.0,'11111222,11111222,11144222' 
ADCP,ioos:station:wmo:42390:1,2014-10-05T07:30:00Z,26.1290,-94.8980,1.0,7.9,107.0,99.0,'11111222,11111222,11144222' 
ADCP,ioos:station:wmo:42390:1,2014-10-05T08:30:00Z,26.1290,-94.8980,1.0,7.5,112.0,99.0,'11111222,11111222,11144222' 
ADCP,ioos:station:wmo:42390:1,2014-10-05T09:30:00Z,26.1290,-94.8980,1.0,7.3,113.0,99.0,'11111222,11111222,11144222' 
ADCP,ioos:station:wmo:42390:1,2014-10-05T10:30:00Z,26.1290,-94.8980,1.0,6.6,112.0,99.0,'11111222,11111222,11144222' 
ADCP,ioos:station:wmo:42390:1,2014-10-05T11:30:00Z,26.1290,-94.8980,1.0,6.6,117.0,99.0,'11111222,11111222,11144222' 
ADCP,ioos:station:wmo:42390:1,2014-10-05T13:30:00Z,26.1290,-94.8980,1.0,7.0,115.0,99.0,'11111222,11111222,11144222' 
ADCP,ioos:station:wmo:42390:1,2014-10-05T14:30:00Z,26.1290,-94.8980,1.0,7.5,113.0,99.0,'11111222,11111222,11144222' 
ADCP,ioos:station:wmo:42390:1,2014-10-05T15:30:00Z,26.1290,-94.8980,1.0,7.2,118.0,99.0,'11111222,11111222,11144222' 
ADCP,ioos:station:wmo:42390:1,2014-10-05T16:30:00Z,26.1290,-94.8980,1.0,7.1,117.0,99.0,'11111222,11111222,11144222' 
ADCP,ioos:station:wmo:42390:1,2014-10-05T17:30:00Z,26.1290,-94.8980,1.0,8.1,112.0,99.0,'11111222,11111222,11144222' 
ADCP,ioos:station:wmo:42390:1,2014-10-05T18:30:00Z,26.1290,-94.8980,1.0,8.9,110.0,99.0,'11111222,11111222,11144222' 
ADCP,ioos:station:wmo:42390:1,2014-10-05T19:30:00Z,26.1290,-94.8980,1.0,9.2,106.0,99.0,'11111222,11111222,11144222' 
ADCP,ioos:station:wmo:42390:1,2014-10-05T22:30:00Z,26.1290,-94.8980,1.0,9.7,115.0,99.0,'11111222,11111222,11144222' 
ADCP,ioos:station:wmo:42390:1,2014-10-05T23:30:00Z,26.1290,-94.8980,1.0,10.4,112.0,99.0,'11111222,11111222,11144222' 
ADCP,ioos:station:wmo:42390:1,2014-10-06T00:30:00Z,26.1290,-94.8980,1.0,11.1,117.0,99.0,'11111222,11111222,11144222' 
ADCP,ioos:station:wmo:42390:1,2014-10-06T01:30:00Z,26.1290,-94.8980,1.0,10.8,124.0,99.0,'11111222,11111222,11144222' 
ADCP,ioos:station:wmo:42390:1,2014-10-06T02:30:00Z,26.1290,-94.8980,1.0,10.0,130.0,99.0,'11111222,11111222,11144222' 
ADCP,ioos:station:wmo:42390:1,2014-10-06T03:30:00Z,26.1290,-94.8980,1.0,10.0,130.0,99.0,'11111222,11111222,11144222' 
ADCP,ioos:station:wmo:42390:1,2014-10-06T04:30:00Z,26.1290,-94.8980,1.0,10.1,131.0,99.0,'11111222,11111222,11144222' 
ADCP,ioos:station:wmo:42390:1,2014-10-06T05:30:00Z,26.1290,-94.8980,1.0,9.5,132.0,99.0,'11111222,11111222,11144222' 
ADCP,ioos:station:wmo:42390:1,2014-10-06T06:30:00Z,26.1290,-94.8980,1.0,8.5,148.0,99.0,'11111222,11111222,11144222' 
ADCP,ioos:station:wmo:42390:1,2014-10-06T07:30:00Z,26.1290,-94.8980,1.0,9.2,156.0,99.0,'11111222,11111222,11144222' 
ADCP,ioos:station:wmo:42390:1,2014-10-06T08:30:00Z,26.1290,-94.8980,1.0,6.7,162.0,99.0,'11111222,11111222,11144222' 
ADCP,ioos:station:wmo:42390:1,2014-10-06T09:30:00Z,26.1290,-94.8980,1.0,6.5,173.0,99.0,'11111222,11111222,11144222' 
ADCP,ioos:station:wmo:42390:1,2014-10-06T10:30:00Z,26.1290,-94.8980,1.0,6.6,180.0,99.0,'11111222,11111222,11144222' 
ADCP,ioos:station:wmo:42390:1,2014-10-06T11:30:00Z,26.1290,-94.8980,1.0,7.3,182.0,99.0,'11111222,11111222,11144222' 
ADCP,ioos:station:wmo:42390:1,2014-10-06T12:30:00Z,26.1290,-94.8980,1.0,7.6,187.0,99.0,'11111222,11111222,11144222' 
ADCP,ioos:station:wmo:42390:1,2014-10-06T13:30:00Z,26.1290,-94.8980,1.0,7.6,189.0,99.0,'11111222,11111222,11144222' 
ADCP,ioos:station:wmo:42390:1,2014-10-06T14:30:00Z,26.1290,-94.8980,1.0,6.5,186.0,99.0,'11111222,11111222,11144222' 
ADCP,ioos:station:wmo:42390:1,2014-10-06T15:30:00Z,26.1290,-94.8980,1.0,5.8,195.0,99.0,'11111222,11111222,11144222' 
ADCP,ioos:station:wmo:42390:1,2014-10-06T16:30:00Z,26.1290,-94.8980,1.0,6.5,190.0,99.0,'11111222,11111222,11144222' 
ADCP,ioos:station:wmo:42390:1,2014-10-06T17:30:00Z,26.1290,-94.8980,1.0,6.8,182.0,99.0,'11111222,11111222,11144222' 
ADCP,ioos:station:wmo:42390:1,2014-10-06T18:30:00Z,26.1290,-94.8980,1.0,4.0,191.0,99.0,'11111222,11111222,11144222' 
ADCP,ioos:station:wmo:42390:1,2014-10-06T19:30:00Z,26.1290,-94.8980,1.0,4.2,193.0,99.0,'11111222,11111222,11144222' 
ADCP,ioos:station:wmo:42390:1,2014-10-06T20:30:00Z,26.1290,-94.8980,1.0,3.2,189.0,99.0,'11111222,11111222,11144222' 
ADCP,ioos:station:wmo:42390:1,2014-10-06T21:30:00Z,26.1290,-94.8980,1.0,2.5,200.0,99.0,'11111222,11111222,11144222' 
ADCP,ioos:station:wmo:42390:1,2014-10-06T22:30:00Z,26.1290,-94.8980,1.0,2.1,201.0,99.0,'11111222,11111222,11144222' 
ADCP,ioos:station:wmo:42390:1,2014-10-06T23:30:00Z,26.1290,-94.8980,1.0,6.6,57.0,99.0,'11111222,11111222,11144222' 
ADCP,ioos:station:wmo:42390:1,2014-10-07T00:30:00Z,26.1290,-94.8980,1.0,4.5,69.0,99.0,'11111222,11111222,11144222' 
ADCP,ioos:station:wmo:42390:1,2014-10-07T01:30:00Z,26.1290,-94.8980,1.0,6.7,103.0,99.0,'11111222,11111222,11144222' 
ADCP,ioos:station:wmo:42390:1,2014-10-07T02:30:00Z,26.1290,-94.8980,1.0,6.8,115.0,99.0,'11111222,11111222,11144222' 
ADCP,ioos:station:wmo:42390:1,2014-10-07T03:30:00Z,26.1290,-94.8980,1.0,6.5,116.0,99.0,'11111222,11111222,11144222' 
ADCP,ioos:station:wmo:42390:1,2014-10-07T04:30:00Z,26.1290,-94.8980,1.0,8.0,126.0,99.0,'11111222,11111222,11144222' 
ADCP,ioos:station:wmo:42390:1,2014-10-07T05:30:00Z,26.1290,-94.8980,1.0,7.8,130.0,99.0,'11111222,11111222,11144222' 
ADCP,ioos:station:wmo:42390:1,2014-10-07T06:30:00Z,26.1290,-94.8980,1.0,6.8,139.0,99.0,'11111222,11111222,11144222' 
ADCP,ioos:station:wmo:42390:1,2014-10-07T07:30:00Z,26.1290,-94.8980,1.0,5.8,158.0,99.0,'11111222,11111222,11144222' 
ADCP,ioos:station:wmo:42390:1,2014-10-07T08:30:00Z,26.1290,-94.8980,1.0,4.6,169.0,99.0,'11111222,11111222,11144222' 
ADCP,ioos:station:wmo:42390:1,2014-10-07T09:30:00Z,26.1290,-94.8980,1.0,4.7,175.0,99.0,'11111222,11111222,11144222' 
ADCP,ioos:station:wmo:42390:1,2014-10-07T10:30:00Z,26.1290,-94.8980,1.0,4.4,188.0,99.0,'11111222,11111222,11144222' 
ADCP,ioos:station:wmo:42390:1,2014-10-07T11:30:00Z,26.1290,-94.8980,1.0,3.8,200.0,99.0,'11111222,11111222,11144222' 
ADCP,ioos:station:wmo:42390:1,2014-10-07T12:30:00Z,26.1290,-94.8980,1.0,2.6,199.0,99.0,'11111222,11111222,11144222' 
ADCP,ioos:station:wmo:42390:1,2014-10-07T13:30:00Z,26.1290,-94.8980,1.0,2.2,209.0,99.0,'11111222,11111222,11144222' 
ADCP,ioos:station:wmo:42390:1,2014-10-07T14:30:00Z,26.1290,-94.8980,1.0,0.8,287.0,99.0,'11111222,11111222,11144222' 
ADCP,ioos:station:wmo:42390:1,2014-10-07T15:30:00Z,26.1290,-94.8980,1.0,0.0,0.0,99.0,'11111222,11111222,11144222' 
ADCP,ioos:station:wmo:42390:1,2014-10-07T16:30:00Z,26.1290,-94.8980,1.0,99.0,-9999.0,99.0,'11144222,99999999,11144222' 
ADCP,ioos:station:wmo:42390:1,2014-10-07T17:30:00Z,26.1290,-94.8980,1.0,99.0,-9999.0,99.0,'11144222,99999999,11144222' 
ADCP,ioos:station:wmo:42390:1,2014-10-07T18:30:00Z,26.1290,-94.8980,1.0,99.0,28.0,99.0,'11144222,11111222,11144222' 
ADCP,ioos:station:wmo:42390:1,2014-10-07T19:30:00Z,26.1290,-94.8980,1.0,1.8,73.0,99.0,'11111222,11111222,11144222' 
ADCP,ioos:station:wmo:42390:1,2014-10-07T20:30:00Z,26.1290,-94.8980,1.0,2.6,77.0,99.0,'11111222,11111222,11144222' 
ADCP,ioos:station:wmo:42390:1,2014-10-07T21:30:00Z,26.1290,-94.8980,1.0,3.7,83.0,99.0,'11111222,11111222,11144222' 
ADCP,ioos:station:wmo:42390:1,2014-10-07T22:30:00Z,26.1290,-94.8980,1.0,6.2,117.0,99.0,'11111222,11111222,11144222' 
ADCP,ioos:station:wmo:42390:1,2014-10-07T23:30:00Z,26.1290,-94.8980,1.0,4.8,96.0,99.0,'11111222,11111222,11144222' 
ADCP,ioos:station:wmo:42390:1,2014-10-08T00:30:00Z,26.1290,-94.8980,1.0,6.2,104.0,99.0,'11111222,11111222,11144222' 
ADCP,ioos:station:wmo:42390:1,2014-10-08T01:30:00Z,26.1290,-94.8980,1.0,6.4,103.0,99.0,'11111222,11111222,11144222' 
ADCP,ioos:station:wmo:42390:1,2014-10-08T02:30:00Z,26.1290,-94.8980,1.0,6.7,109.0,99.0,'11111222,11111222,11144222' 
ADCP,ioos:station:wmo:42390:1,2014-10-08T03:30:00Z,26.1290,-94.8980,1.0,7.2,118.0,99.0,'11111222,11111222,11144222' 
ADCP,ioos:station:wmo:42390:1,2014-10-08T04:30:00Z,26.1290,-94.8980,1.0,6.6,127.0,99.0,'11111222,11111222,11144222' 
ADCP,ioos:station:wmo:42390:1,2014-10-08T05:30:00Z,26.1290,-94.8980,1.0,7.2,138.0,99.0,'11111222,11111222,11144222' 
ADCP,ioos:station:wmo:42390:1,2014-10-08T06:30:00Z,26.1290,-94.8980,1.0,8.5,141.0,99.0,'11111222,11111222,11144222' 
ADCP,ioos:station:wmo:42390:1,2014-10-08T08:30:00Z,26.1290,-94.8980,1.0,7.0,150.0,99.0,'11111222,11111222,11144222' 
ADCP,ioos:station:wmo:42390:1,2014-10-08T09:30:00Z,26.1290,-94.8980,1.0,6.9,154.0,99.0,'11111222,11111222,11144222' 
ADCP,ioos:station:wmo:42390:1,2014-10-08T10:30:00Z,26.1290,-94.8980,1.0,6.5,152.0,99.0,'11111222,11111222,11144222' 
ADCP,ioos:station:wmo:42390:1,2014-10-08T11:30:00Z,26.1290,-94.8980,1.0,6.2,150.0,99.0,'11111222,11111222,11144222' 
ADCP,ioos:station:wmo:42390:1,2014-10-08T12:30:00Z,26.1290,-94.8980,1.0,6.0,152.0,99.0,'11111222,11111222,11144222' 
ADCP,ioos:station:wmo:42390:1,2014-10-08T13:30:00Z,26.1290,-94.8980,1.0,5.9,150.0,99.0,'11111222,11111222,11144222' 
ADCP,ioos:station:wmo:42390:1,2014-10-08T14:30:00Z,26.1290,-94.8980,1.0,5.7,145.0,99.0,'11111222,11111222,11144222' 
ADCP,ioos:station:wmo:42390:1,2014-10-08T15:30:00Z,26.1290,-94.8980,1.0,5.5,148.0,99.0,'11111222,11111222,11144222' 
ADCP,ioos:station:wmo:42390:1,2014-10-08T16:30:00Z,26.1290,-94.8980,1.0,5.8,143.0,99.0,'11111222,11111222,11144222' 
ADCP,ioos:station:wmo:42390:1,2014-10-08T17:30:00Z,26.1290,-94.8980,1.0,5.4,137.0,99.0,'11111222,11111222,11144222' 
ADCP,ioos:station:wmo:42390:1,2014-10-08T18:30:00Z,26.1290,-94.8980,1.0,5.3,132.0,99.0,'11111222,11111222,11144222' 
ADCP,ioos:station:wmo:42390:1,2014-10-08T19:30:00Z,26.1290,-94.8980,1.0,5.6,126.0,99.0,'11111222,11111222,11144222' 
ADCP,ioos:station:wmo:42390:1,2014-10-08T20:30:00Z,26.1290,-94.8980,1.0,5.8,127.0,99.0,'11111222,11111222,11144222' 
ADCP,ioos:station:wmo:42390:1,2014-10-08T21:30:00Z,26.1290,-94.8980,1.0,6.1,124.0,99.0,'11111222,11111222,11144222' 
ADCP,ioos:station:wmo:42390:1,2014-10-08T22:30:00Z,26.1290,-94.8980,1.0,6.1,112.0,99.0,'11111222,11111222,11144222' 
ADCP,ioos:station:wmo:42390:1,2014-10-08T23:30:00Z,26.1290,-94.8980,1.0,5.8,106.0,99.0,'11111222,11111222,11144222' 
ADCP,ioos:station:wmo:42390:1,2014-10-09T00:30:00Z,26.1290,-94.8980,1.0,5.6,102.0,99.0,'11111222,11111222,11144222' 
ADCP,ioos:station:wmo:42390:1,2014-10-09T01:30:00Z,26.1290,-94.8980,1.0,6.3,108.0,99.0,'11111222,11111222,11144222' 
ADCP,ioos:station:wmo:42390:1,2014-10-09T02:30:00Z,26.1290,-94.8980,1.0,6.3,111.0,99.0,'11111222,11111222,11144222' 
ADCP,ioos:station:wmo:42390:1,2014-10-09T03:30:00Z,26.1290,-94.8980,1.0,6.1,113.0,99.0,'11111222,11111222,11144222' 
ADCP,ioos:station:wmo:42390:1,2014-10-09T04:30:00Z,26.1290,-94.8980,1.0,6.4,117.0,99.0,'11111222,11111222,11144222' 
ADCP,ioos:station:wmo:42390:1,2014-10-09T06:30:00Z,26.1290,-94.8980,1.0,5.5,127.0,99.0,'11111222,11111222,11144222' 
ADCP,ioos:station:wmo:42390:1,2014-10-09T07:30:00Z,26.1290,-94.8980,1.0,5.7,132.0,99.0,'11111222,11111222,11144222' 
ADCP,ioos:station:wmo:42390:1,2014-10-09T08:30:00Z,26.1290,-94.8980,1.0,5.8,135.0,99.0,'11111222,11111222,11144222' 
ADCP,ioos:station:wmo:42390:1,2014-10-09T09:30:00Z,26.1290,-94.8980,1.0,5.2,140.0,99.0,'11111222,11111222,11144222' 
ADCP,ioos:station:wmo:42390:1,2014-10-09T10:30:00Z,26.1290,-94.8980,1.0,6.1,142.0,99.0,'11111222,11111222,11144222' 
ADCP,ioos:station:wmo:42390:1,2014-10-09T11:30:00Z,26.1290,-94.8980,1.0,6.4,140.0,99.0,'11111222,11111222,11144222' 
ADCP,ioos:station:wmo:42390:1,2014-10-09T12:30:00Z,26.1290,-94.8980,1.0,7.4,147.0,99.0,'11111222,11111222,11144222' 
ADCP,ioos:station:wmo:42390:1,2014-10-09T13:30:00Z,26.1290,-94.8980,1.0,7.1,148.0,99.0,'11111222,11111222,11144222' 
ADCP,ioos:station:wmo:42390:1,2014-10-09T14:30:00Z,26.1290,-94.8980,1.0,7.1,146.0,99.0,'11111222,11111222,11144222' 
ADCP,ioos:station:wmo:42390:1,2014-10-09T15:30:00Z,26.1290,-94.8980,1.0,7.5,146.0,99.0,'11111222,11111222,11144222' 
ADCP,ioos:station:wmo:42390:1,2014-10-09T17:30:00Z,26.1290,-94.8980,1.0,8.3,148.0,99.0,'11111222,11111222,11144222' 
ADCP,ioos:station:wmo:42390:1,2014-10-09T19:30:00Z,26.1290,-94.8980,1.0,8.6,146.0,99.0,'11111222,11111222,11144222' 
ADCP,ioos:station:wmo:42390:1,2014-10-09T20:30:00Z,26.1290,-94.8980,1.0,6.5,149.0,99.0,'11111222,11111222,11144222' 